DateTimeUTC,F1_A11,F1_S11,BsB_S11,BsG_S11,BsR_S11,BbsB_S11,BbsG_S11,BbsR_S11,BaB_A11,BaG_A11,BaR_A11,Tu_S11,T_S11,Uu_S11,U_S11,P_S11,T1_A11
2021-06-24T19:00:00Z,00000200,20000000,,,,,,,-000.52,0000.18,-000.10,20.8,27.2,08.4,05.7,0669.8,31.4
2021-06-24T19:01:00Z,00000200,20000000,,,,,,,0000.09,-000.49,-000.10,20.8,27.3,08.2,05.5,0669.8,31.4
2021-06-24T19:02:00Z,00000200,20000000,,,,,,,0000.06,0000.30,0000.16,20.8,27.3,08.1,05.5,0669.8,31.4
2021-06-24T19:03:00Z,00000200,60000000,,,,,,,-000.09,0000.08,-000.31,20.8,27.3,08.1,05.5,0669.8,31.4
2021-06-24T19:04:00Z,00000200,40000000,0000.19,0000.51,0000.28,0000.45,-000.02,-000.04,0000.08,0000.08,0000.39,20.9,27.2,08.1,05.5,0670.8,31.5
2021-06-24T19:05:00Z,00000200,00000000,0001.25,0000.55,0000.34,0000.45,0000.01,0000.38,0000.27,0000.13,0000.19,21.0,27.2,08.1,05.6,0670.9,31.5
2021-06-24T19:06:00Z,00000200,00000000,0000.44,0000.55,-000.04,0000.18,-000.19,0000.16,0000.43,0000.01,0000.19,21.0,27.1,08.2,05.6,0670.9,31.5
2021-06-24T19:07:00Z,00000200,00000000,0000.64,0000.42,0000.26,0000.02,-000.19,-000.18,0000.08,0000.23,-000.15,21.0,27.1,08.2,05.6,0670.9,31.5
2021-06-24T19:08:00Z,00000200,00000000,0000.63,0000.42,0000.53,-000.05,-000.08,0000.13,0000.08,0000.33,0000.20,21.0,27.1,08.2,05.7,0671.0,31.5
2021-06-24T19:09:00Z,00000200,00000000,0000.78,0000.12,0000.41,0000.17,0000.06,-000.13,0000.21,0000.08,0000.14,21.0,27.1,08.2,05.7,0671.0,31.5
2021-06-24T19:10:00Z,00000200,00000000,-000.39,0000.36,0000.35,-000.00,0000.03,-000.16,-000.07,-000.03,-000.11,21.0,27.1,08.2,05.6,0671.0,31.5
2021-06-24T19:11:00Z,00000200,00000000,0000.28,0000.36,0000.36,-000.06,0000.13,0000.08,-000.06,0000.36,0000.29,21.0,27.1,08.2,05.7,0671.1,31.5
2021-06-24T19:12:00Z,00000200,00000000,0001.02,0000.57,0000.43,0000.11,-000.05,0000.09,0000.53,-000.18,-000.09,21.0,27.1,08.3,05.7,0671.1,31.5
2021-06-24T19:13:00Z,00000200,00000000,0000.19,0000.15,0000.11,-000.53,0000.17,-000.16,-000.01,0000.26,0000.31,21.0,27.1,08.3,05.8,0671.1,31.5
2021-06-24T19:14:00Z,00000200,00000000,0000.44,0000.53,0000.22,-000.15,-000.03,-000.12,0000.18,-000.02,0000.14,21.0,27.1,08.3,05.8,0671.1,31.5
2021-06-24T19:15:00Z,00000200,00000000,0001.16,0000.61,0000.37,0000.69,0000.06,0000.19,0000.22,0000.12,-000.02,20.9,27.1,08.3,05.8,0671.1,31.5
2021-06-24T19:16:00Z,00000200,00000000,0000.92,0000.18,0000.42,0000.03,-000.05,0000.23,0000.16,0000.29,0000.13,20.9,27.1,08.4,05.8,0671.1,31.5
2021-06-24T19:17:00Z,00000200,00000000,0000.62,0000.67,0000.34,0000.32,-000.22,0000.01,-000.03,-000.03,-000.25,20.9,27.1,08.4,05.8,0671.1,31.5
2021-06-24T19:18:00Z,00000200,00000000,0000.15,0000.45,0000.27,0000.11,0000.32,0000.12,0000.10,0000.24,0000.33,20.9,27.1,08.4,05.8,0671.1,31.5
2021-06-24T19:19:00Z,00000200,00000000,0000.34,0000.22,0000.43,-000.05,0000.14,-000.21,0000.29,0000.06,0000.36,20.9,27.1,08.5,05.9,0671.1,31.5
2021-06-24T19:20:00Z,00000200,00000000,0000.59,0000.44,-000.04,0000.60,-000.05,0000.11,-000.12,0000.17,-000.17,20.9,27.1,08.5,05.8,0671.1,31.5
2021-06-24T19:21:00Z,00000200,00000000,0000.54,0000.46,-000.27,0000.80,0000.09,-000.01,0000.27,0000.01,0000.10,20.9,27.1,08.5,05.9,0671.1,31.5
2021-06-24T19:22:00Z,00000200,00000000,0000.88,0000.47,0000.05,0000.18,0000.13,-000.30,0000.17,0000.16,0000.15,20.9,27.1,08.4,05.8,0671.0,31.5
2021-06-24T19:23:00Z,00000200,00000000,0000.29,0000.51,0000.37,0000.38,0000.16,0000.29,0000.21,0000.23,0000.14,20.9,27.0,08.4,05.8,0671.1,31.5
2021-06-24T19:24:00Z,00000200,00000000,0000.82,0000.27,0000.31,0000.39,-000.06,0000.12,-000.19,0000.03,-000.23,20.9,27.0,08.5,05.8,0671.0,31.5
2021-06-24T19:25:00Z,00000200,00000000,0001.19,0000.52,0000.14,-000.37,-000.04,-000.09,0000.36,0000.12,0000.33,20.9,27.1,08.3,05.8,0671.0,31.5
2021-06-24T19:26:00Z,00000200,00000000,0000.30,0000.60,0000.06,0000.36,-000.07,0000.30,-000.06,0000.40,-000.15,20.9,27.1,08.5,05.8,0671.1,31.5
2021-06-24T19:27:00Z,00000200,00000000,0000.63,0000.44,0000.23,0000.09,-000.13,0000.18,0000.21,-000.28,0000.18,20.9,27.1,08.5,05.8,0671.1,31.5
2021-06-24T19:28:00Z,00000200,00000000,-000.18,0000.33,0000.14,0000.19,-000.09,-000.13,-000.01,0000.41,0000.32,20.9,27.1,08.4,05.8,0671.1,31.5
2021-06-24T19:29:00Z,00000200,00000000,-000.22,0000.48,0000.39,0000.13,0000.12,0000.03,0000.24,-000.06,-000.14,20.9,27.0,08.4,05.8,0671.1,31.5
2021-06-24T19:30:00Z,00000200,00000000,0001.35,0000.59,0000.16,0000.31,0000.05,0000.27,0000.21,0000.03,0000.05,20.9,27.0,08.4,05.8,0671.1,31.5
2021-06-24T19:31:00Z,00000200,00000000,0000.65,0000.72,0000.25,0000.06,-000.04,0000.15,0000.21,0000.08,0000.18,20.8,27.0,08.5,05.9,0671.1,31.5
2021-06-24T19:32:00Z,00000200,00000000,0000.52,0000.78,0000.21,0000.20,0000.23,-000.19,-000.16,0000.10,0000.41,20.8,27.0,08.6,05.9,0671.1,31.5
2021-06-24T19:33:00Z,00000200,00000000,0000.67,0000.25,0000.22,-000.05,-000.35,0000.04,0000.48,0000.44,-000.06,20.8,27.0,08.5,05.9,0671.1,31.5
2021-06-24T19:34:00Z,00000200,00000000,0000.76,0000.39,0000.18,0000.60,-000.26,0000.02,-000.11,-000.43,0000.14,20.8,27.0,08.6,05.9,0671.1,31.5
2021-06-24T19:35:00Z,00000200,00000000,0000.11,0000.42,-000.22,0000.04,-000.04,0000.13,0000.40,0000.60,-000.10,20.8,27.0,08.8,06.0,0671.1,31.5
2021-06-24T19:36:00Z,00000200,00000000,0000.19,0000.43,0000.38,-000.09,0000.03,0000.18,0000.20,0000.01,0000.25,20.8,27.0,08.8,06.0,0671.1,31.5
2021-06-24T19:37:00Z,00000200,00000000,0000.79,0000.37,-000.04,-000.17,0000.11,0000.05,-000.03,0000.28,-000.06,20.8,27.0,08.7,06.0,0671.1,31.5
2021-06-24T19:38:00Z,00000200,00000000,0001.02,0000.43,0000.18,0000.04,-000.04,-000.02,0000.16,-000.31,0000.52,20.8,27.0,08.7,06.0,0671.1,31.5
2021-06-24T19:39:00Z,00000200,00000000,0000.27,0000.52,0000.15,0000.06,0000.08,0000.01,0000.16,0000.50,0000.01,20.8,27.0,08.7,06.0,0671.1,31.5
2021-06-24T19:40:00Z,00000200,00000000,0000.69,0000.47,0000.34,0000.19,0000.37,0000.04,0000.14,0000.10,-000.12,20.8,27.0,08.7,06.0,0671.1,31.5
2021-06-24T19:41:00Z,00000200,00000000,0000.61,0000.48,0000.20,0000.14,0000.05,0000.08,0000.08,0000.15,0000.11,20.8,27.0,08.8,06.0,0671.1,31.5
2021-06-24T19:42:00Z,00000200,00000000,0000.66,0000.33,0000.35,0000.35,-000.17,-000.18,0000.58,0000.22,0000.04,20.8,27.0,08.8,06.0,0671.1,31.5
2021-06-24T19:43:00Z,00000200,00000000,0001.03,0000.68,0000.29,0000.10,-000.15,0000.09,-000.29,-000.05,0000.26,20.7,27.0,08.8,06.0,0671.0,31.5
2021-06-24T19:44:00Z,00000200,00000000,0000.10,0000.20,0000.26,0000.29,0000.03,-000.21,0000.34,0000.19,0000.30,20.7,27.0,08.9,06.1,0671.1,31.5
2021-06-24T19:45:00Z,00000200,00000000,0000.66,0000.22,0000.51,0000.17,-000.02,0000.11,0000.19,-000.06,0000.07,20.7,27.0,08.9,06.1,0671.1,31.5
2021-06-24T19:46:00Z,00000200,00000000,0000.75,0000.42,0000.06,0000.35,0000.01,-000.41,-000.12,0000.35,-000.26,20.7,26.9,08.8,06.0,0671.1,31.4
2021-06-24T19:47:00Z,00000200,00000000,0000.69,0000.36,0000.23,-000.00,-000.13,-000.10,0000.25,-000.04,0000.39,20.7,27.0,09.0,06.1,0671.1,31.4
2021-06-24T19:48:00Z,00000200,00000000,-000.20,0000.74,0000.23,0000.41,-000.00,-000.06,0000.40,0000.08,-000.18,20.7,27.0,08.8,06.0,0671.1,31.4
2021-06-24T19:49:00Z,00000200,00000000,0000.68,0000.58,0000.63,0000.55,0000.04,0000.32,-000.09,0000.46,0000.10,20.7,26.9,08.8,06.1,0671.1,31.4
2021-06-24T19:50:00Z,00000200,00000000,0000.85,0000.29,0000.07,0000.25,0000.14,0000.03,0000.03,-000.10,-000.11,20.7,26.9,08.9,06.1,0671.1,31.4
2021-06-24T19:51:00Z,00000200,00000000,0001.12,0000.35,0000.32,-000.19,-000.08,0000.17,0000.33,0000.11,0000.34,20.6,26.9,08.9,06.1,0671.1,31.4
2021-06-24T19:52:00Z,00000200,00000000,0000.35,0000.14,0000.28,0000.49,-000.15,0000.15,0000.05,0000.11,-000.04,20.6,26.9,09.0,06.2,0671.1,31.4
2021-06-24T19:53:00Z,00000200,00000000,0000.28,0000.50,0000.38,0000.05,0000.00,0000.13,0000.07,0000.04,0000.21,20.6,26.9,08.9,06.1,0671.1,31.4
2021-06-24T19:54:00Z,00000200,00000000,0000.72,0000.40,0000.25,0000.01,-000.17,0000.36,0000.39,0000.11,0000.19,20.6,26.9,08.9,06.1,0671.1,31.4
2021-06-24T19:55:00Z,00000200,00000000,0000.97,0000.34,0000.17,0000.35,-000.15,-000.15,-000.17,0000.27,0000.14,20.6,26.9,08.9,06.1,0671.1,31.4
2021-06-24T19:56:00Z,00000200,00000000,0000.32,0000.42,0000.08,-000.04,0000.27,-000.13,0000.09,-000.03,-000.15,20.6,26.9,08.8,06.0,0671.0,31.4
2021-06-24T19:57:00Z,00000200,40000000,,,,,,,-000.03,0000.18,0000.11,20.6,26.9,08.9,06.1,0670.9,31.4
2021-06-24T19:58:00Z,00000200,60000000,,,,,,,0000.20,-000.39,0000.22,20.4,27.0,08.7,05.8,0670.0,31.4
2021-06-24T19:59:00Z,00000200,20000000,,,,,,,0000.20,0000.40,-000.37,20.4,27.1,08.8,05.9,0670.0,31.4
